Time,TemperatureF,DewpointF,PressureIn,WindDirection,WindDirectionDegrees,WindSpeedMPH,WindSpeedGustMPH,Humidity,HourlyPrecipIn,Conditions,Clouds,dailyrainin,SoftwareType,DateUTC
2013-07-08 00:01:00,75.9,71.7,29.92,SSE,155,0.0,0.0,87,0.00,,,0.00,WeatherCatV1.15B25,2013-07-08 04:01:00,
2013-07-08 00:02:00,75.8,71.6,29.92,SSE,155,0.0,0.0,87,0.00,,,0.00,WeatherCatV1.15B25,2013-07-08 04:02:00,
2013-07-08 00:04:00,75.8,71.6,29.92,SSE,155,0.0,0.0,87,0.00,,,0.00,WeatherCatV1.15B25,2013-07-08 04:04:00,
2013-07-08 00:09:00,75.7,71.9,29.92,SSE,155,0.0,0.0,88,0.00,,,0.00,WeatherCatV1.15B25,2013-07-08 04:09:00,
2013-07-08 00:14:00,75.6,71.8,29.92,SSE,155,0.0,0.0,88,0.00,,,0.00,WeatherCatV1.15B25,2013-07-08 04:14:00,
2013-07-08 00:19:00,75.5,72.0,29.91,SSE,155,0.0,0.0,89,0.00,,,0.00,WeatherCatV1.15B25,2013-07-08 04:19:00,
2013-07-08 00:24:00,75.5,72.0,29.91,SSE,155,0.0,0.0,89,0.00,,,0.00,WeatherCatV1.15B25,2013-07-08 04:24:00,
2013-07-08 00:29:00,75.4,71.9,29.91,SSE,155,0.0,0.0,89,0.00,,,0.00,WeatherCatV1.15B25,2013-07-08 04:29:00,
2013-07-08 00:34:00,75.3,71.8,29.91,SSE,155,0.0,0.0,89,0.00,,,0.00,WeatherCatV1.15B25,2013-07-08 04:34:00,
2013-07-08 00:39:00,75.1,72.0,29.91,SSE,147,0.0,0.0,90,0.00,,,0.00,WeatherCatV1.15B25,2013-07-08 04:39:00,
2013-07-08 00:44:00,75.0,71.9,29.91,SE,144,0.0,1.0,90,0.00,,,0.00,WeatherCatV1.15B25,2013-07-08 04:44:00,
2013-07-08 00:49:00,74.9,71.8,29.91,SE,144,0.0,1.0,90,0.00,,,0.00,WeatherCatV1.15B25,2013-07-08 04:49:00,
2013-07-08 00:54:00,74.8,71.7,29.91,SE,143,0.0,1.0,90,0.00,,,0.00,WeatherCatV1.15B25,2013-07-08 04:54:00,
2013-07-08 00:59:00,74.7,71.6,29.91,SE,143,0.0,1.0,90,0.00,,,0.00,WeatherCatV1.15B25,2013-07-08 04:59:00,
2013-07-08 01:04:00,74.5,71.7,29.90,SE,143,0.0,0.0,91,0.00,,,0.00,WeatherCatV1.15B25,2013-07-08 05:04:00,
2013-07-08 01:09:00,74.5,71.7,29.91,SE,143,0.0,0.0,91,0.00,,,0.00,WeatherCatV1.15B25,2013-07-08 05:09:00,
2013-07-08 01:14:00,74.4,71.6,29.91,SE,143,0.0,0.0,91,0.00,,,0.00,WeatherCatV1.15B25,2013-07-08 05:14:00,
2013-07-08 01:19:00,74.4,71.6,29.91,SE,143,0.0,1.0,91,0.00,,,0.00,WeatherCatV1.15B25,2013-07-08 05:19:00,
2013-07-08 01:24:00,74.5,71.7,29.92,SE,143,0.0,1.0,91,0.00,,,0.00,WeatherCatV1.15B25,2013-07-08 05:24:00,
2013-07-08 01:29:00,74.5,71.4,29.92,SE,143,0.0,0.0,90,0.00,,,0.00,WeatherCatV1.15B25,2013-07-08 05:29:00,
2013-07-08 01:34:00,74.6,71.5,29.92,SE,143,0.0,0.0,90,0.00,,,0.00,WeatherCatV1.15B25,2013-07-08 05:34:00,
2013-07-08 01:39:00,74.6,71.5,29.92,SE,143,0.0,0.0,90,0.00,,,0.00,WeatherCatV1.15B25,2013-07-08 05:39:00,
2013-07-08 01:44:00,74.6,71.5,29.92,SE,143,0.0,0.0,90,0.00,,,0.00,WeatherCatV1.15B25,2013-07-08 05:44:00,
2013-07-08 01:49:00,74.6,71.5,29.92,SE,143,0.0,0.0,90,0.00,,,0.00,WeatherCatV1.15B25,2013-07-08 05:49:00,
2013-07-08 01:54:00,74.7,71.6,29.92,NW,307,0.0,1.0,90,0.00,,,0.00,WeatherCatV1.15B25,2013-07-08 05:54:00,
2013-07-08 01:59:00,74.8,71.3,29.92,NW,307,0.0,0.0,89,0.00,,,0.00,WeatherCatV1.15B25,2013-07-08 05:59:00,
2013-07-08 02:04:00,74.8,71.3,29.92,NW,307,0.0,0.0,89,0.00,,,0.00,WeatherCatV1.15B25,2013-07-08 06:04:00,
2013-07-08 02:09:00,74.7,71.2,29.92,NW,307,0.0,0.0,89,0.00,,,0.00,WeatherCatV1.15B25,2013-07-08 06:09:00,
2013-07-08 02:14:00,74.6,71.5,29.92,NW,307,0.0,0.0,90,0.00,,,0.00,WeatherCatV1.15B25,2013-07-08 06:14:00,
2013-07-08 02:19:00,74.5,71.4,29.92,NW,307,0.0,0.0,90,0.00,,,0.00,WeatherCatV1.15B25,2013-07-08 06:19:00,
2013-07-08 02:24:00,74.4,71.3,29.91,NW,307,0.0,0.0,90,0.00,,,0.00,WeatherCatV1.15B25,2013-07-08 06:24:00,
2013-07-08 02:29:00,74.2,71.1,29.92,NW,307,0.0,0.0,90,0.00,,,0.00,WeatherCatV1.15B25,2013-07-08 06:29:00,
2013-07-08 02:34:00,74.2,71.1,29.92,NW,307,0.0,0.0,90,0.00,,,0.00,WeatherCatV1.15B25,2013-07-08 06:34:00,
2013-07-08 02:39:00,74.1,71.0,29.92,NW,307,0.0,0.0,90,0.00,,,0.00,WeatherCatV1.15B25,2013-07-08 06:39:00,
2013-07-08 02:44:00,74.0,70.9,29.91,NW,307,0.0,0.0,90,0.00,,,0.00,WeatherCatV1.15B25,2013-07-08 06:44:00,
2013-07-08 02:49:00,73.9,71.1,29.91,NW,307,0.0,0.0,91,0.00,,,0.00,WeatherCatV1.15B25,2013-07-08 06:49:00,
2013-07-08 02:54:00,73.9,71.1,29.91,NW,307,0.0,0.0,91,0.00,,,0.00,WeatherCatV1.15B25,2013-07-08 06:54:00,
2013-07-08 02:59:00,73.8,71.0,29.91,NW,307,0.0,0.0,91,0.00,,,0.00,WeatherCatV1.15B25,2013-07-08 06:59:00,
2013-07-08 03:04:00,73.8,71.0,29.91,NW,307,0.0,0.0,91,0.00,,,0.00,WeatherCatV1.15B25,2013-07-08 07:04:00,
2013-07-08 03:09:00,73.9,71.1,29.90,NW,307,0.0,0.0,91,0.00,,,0.00,WeatherCatV1.15B25,2013-07-08 07:09:00,
2013-07-08 03:14:00,73.9,71.1,29.91,NW,307,0.0,0.0,91,0.00,,,0.00,WeatherCatV1.15B25,2013-07-08 07:14:00,
2013-07-08 03:19:00,73.9,71.1,29.91,NW,307,0.0,0.0,91,0.00,,,0.00,WeatherCatV1.15B25,2013-07-08 07:19:00,
2013-07-08 03:24:00,73.9,71.1,29.91,NW,307,0.0,0.0,91,0.00,,,0.00,WeatherCatV1.15B25,2013-07-08 07:24:00,
2013-07-08 03:29:00,74.0,71.2,29.91,NW,307,0.0,0.0,91,0.00,,,0.00,WeatherCatV1.15B25,2013-07-08 07:29:00,
2013-07-08 03:34:00,73.9,71.1,29.91,NW,307,0.0,0.0,91,0.00,,,0.00,WeatherCatV1.15B25,2013-07-08 07:34:00,
2013-07-08 03:39:00,73.9,71.1,29.91,NW,307,0.0,0.0,91,0.00,,,0.00,WeatherCatV1.15B25,2013-07-08 07:39:00,
2013-07-08 03:44:00,73.9,71.1,29.91,NW,307,0.0,0.0,91,0.00,,,0.00,WeatherCatV1.15B25,2013-07-08 07:44:00,
2013-07-08 03:49:00,73.8,71.0,29.91,NW,307,0.0,0.0,91,0.00,,,0.00,WeatherCatV1.15B25,2013-07-08 07:49:00,
2013-07-08 03:54:00,73.7,70.9,29.91,NW,307,0.0,0.0,91,0.00,,,0.00,WeatherCatV1.15B25,2013-07-08 07:54:00,
2013-07-08 03:59:00,73.6,70.8,29.90,NW,307,0.0,0.0,91,0.00,,,0.00,WeatherCatV1.15B25,2013-07-08 07:59:00,
2013-07-08 04:04:00,73.5,70.7,29.90,NW,307,0.0,0.0,91,0.00,,,0.00,WeatherCatV1.15B25,2013-07-08 08:04:00,
2013-07-08 04:09:00,73.4,70.6,29.90,NW,307,0.0,0.0,91,0.00,,,0.00,WeatherCatV1.15B25,2013-07-08 08:09:00,
2013-07-08 04:14:00,73.4,70.9,29.90,NW,307,0.0,0.0,92,0.00,,,0.00,WeatherCatV1.15B25,2013-07-08 08:14:00,
2013-07-08 04:19:00,73.4,70.9,29.90,NW,307,0.0,0.0,92,0.00,,,0.00,WeatherCatV1.15B25,2013-07-08 08:19:00,
2013-07-08 04:24:00,73.4,70.9,29.91,NW,307,0.0,0.0,92,0.00,,,0.00,WeatherCatV1.15B25,2013-07-08 08:24:00,
2013-07-08 04:29:00,73.3,70.8,29.91,NW,307,0.0,0.0,92,0.00,,,0.00,WeatherCatV1.15B25,2013-07-08 08:29:00,
2013-07-08 04:34:00,73.4,70.9,29.91,NW,307,0.0,0.0,92,0.00,,,0.00,WeatherCatV1.15B25,2013-07-08 08:34:00,
2013-07-08 04:39:00,73.5,71.0,29.91,NW,307,0.0,0.0,92,0.00,,,0.00,WeatherCatV1.15B25,2013-07-08 08:39:00,
2013-07-08 04:44:00,73.5,71.0,29.91,NW,307,0.0,0.0,92,0.00,,,0.00,WeatherCatV1.15B25,2013-07-08 08:44:00,
2013-07-08 04:49:00,73.7,71.2,29.91,NW,307,0.0,0.0,92,0.00,,,0.00,WeatherCatV1.15B25,2013-07-08 08:49:00,
2013-07-08 04:54:00,73.7,71.2,29.90,NW,307,0.0,0.0,92,0.00,,,0.00,WeatherCatV1.15B25,2013-07-08 08:54:00,
2013-07-08 04:59:00,73.7,71.2,29.91,NW,307,0.0,0.0,92,0.00,,,0.00,WeatherCatV1.15B25,2013-07-08 08:59:00,
2013-07-08 05:04:00,73.7,71.2,29.91,NW,307,0.0,0.0,92,0.00,,,0.00,WeatherCatV1.15B25,2013-07-08 09:04:00,
2013-07-08 05:09:00,73.7,71.2,29.91,NW,307,0.0,0.0,92,0.00,,,0.00,WeatherCatV1.15B25,2013-07-08 09:09:00,
2013-07-08 05:14:00,73.7,71.2,29.91,NW,307,0.0,0.0,92,0.00,,,0.00,WeatherCatV1.15B25,2013-07-08 09:14:00,
2013-07-08 05:19:00,73.7,71.5,29.91,NW,307,0.0,0.0,93,0.00,,,0.00,WeatherCatV1.15B25,2013-07-08 09:19:00,
2013-07-08 05:24:00,73.7,71.2,29.91,NW,307,0.0,0.0,92,0.00,,,0.00,WeatherCatV1.15B25,2013-07-08 09:24:00,
2013-07-08 05:29:00,73.7,71.5,29.91,SE,128,0.0,2.0,93,0.00,,,0.00,WeatherCatV1.15B25,2013-07-08 09:29:00,
2013-07-08 05:34:00,73.8,71.6,29.91,SE,127,0.0,3.0,93,0.00,,,0.00,WeatherCatV1.15B25,2013-07-08 09:34:00,
2013-07-08 05:39:00,73.8,71.6,29.91,ESE,120,0.0,0.0,93,0.00,,,0.00,WeatherCatV1.15B25,2013-07-08 09:39:00,
2013-07-08 05:44:00,73.9,71.7,29.92,SE,129,0.0,0.0,93,0.00,,,0.00,WeatherCatV1.15B25,2013-07-08 09:44:00,
2013-07-08 05:49:00,73.8,71.6,29.91,SE,129,0.0,1.0,93,0.00,,,0.00,WeatherCatV1.15B25,2013-07-08 09:49:00,
2013-07-08 05:54:00,73.9,71.7,29.92,SE,129,0.0,0.0,93,0.00,,,0.00,WeatherCatV1.15B25,2013-07-08 09:54:00,
2013-07-08 05:59:00,73.8,71.6,29.92,SE,129,0.0,1.0,93,0.00,,,0.00,WeatherCatV1.15B25,2013-07-08 09:59:00,
2013-07-08 06:04:00,73.8,71.6,29.92,SE,129,0.0,1.0,93,0.00,,,0.00,WeatherCatV1.15B25,2013-07-08 10:04:00,
2013-07-08 06:09:00,73.9,71.7,29.92,SE,129,0.0,0.0,93,0.00,,,0.00,WeatherCatV1.15B25,2013-07-08 10:09:00,
2013-07-08 06:14:00,73.9,71.7,29.92,SE,127,0.0,1.0,93,0.00,,,0.00,WeatherCatV1.15B25,2013-07-08 10:14:00,
2013-07-08 06:19:00,74.0,71.8,29.92,ESE,112,0.0,0.0,93,0.00,,,0.00,WeatherCatV1.15B25,2013-07-08 10:19:00,
2013-07-08 06:24:00,74.1,71.9,29.93,ESE,111,0.0,1.0,93,0.00,,,0.00,WeatherCatV1.15B25,2013-07-08 10:24:00,
2013-07-08 06:29:00,74.3,72.1,29.93,NW,313,1.0,1.0,93,0.00,,,0.00,WeatherCatV1.15B25,2013-07-08 10:29:00,
2013-07-08 06:34:00,74.5,72.0,29.93,NW,314,0.0,1.0,92,0.00,,,0.00,WeatherCatV1.15B25,2013-07-08 10:34:00,
2013-07-08 06:39:00,74.8,72.3,29.93,NW,320,0.0,1.0,92,0.00,,,0.00,WeatherCatV1.15B25,2013-07-08 10:39:00,
2013-07-08 06:44:00,75.1,72.6,29.93,NW,319,0.0,0.0,92,0.00,,,0.00,WeatherCatV1.15B25,2013-07-08 10:44:00,
2013-07-08 06:49:00,75.2,72.4,29.92,NW,319,0.0,0.0,91,0.00,,,0.00,WeatherCatV1.15B25,2013-07-08 10:49:00,
2013-07-08 06:54:00,75.4,72.6,29.93,NW,320,0.0,0.0,91,0.00,,,0.00,WeatherCatV1.15B25,2013-07-08 10:54:00,
2013-07-08 06:59:00,75.6,72.8,29.92,NW,320,0.0,0.0,91,0.00,,,0.00,WeatherCatV1.15B25,2013-07-08 10:59:00,
2013-07-08 07:04:00,75.8,72.6,29.92,NW,319,0.0,0.0,90,0.00,,,0.00,WeatherCatV1.15B25,2013-07-08 11:04:00,
2013-07-08 07:09:00,76.0,72.8,29.92,NW,319,0.0,0.0,90,0.00,,,0.00,WeatherCatV1.15B25,2013-07-08 11:09:00,
2013-07-08 07:14:00,76.2,73.0,29.92,NW,319,0.0,0.0,90,0.00,,,0.00,WeatherCatV1.15B25,2013-07-08 11:14:00,
2013-07-08 07:15:00,76.2,73.0,29.92,NW,319,0.0,0.0,90,0.00,,,0.00,WeatherCatV1.15B25,2013-07-08 11:15:00,
2013-07-08 07:20:00,76.4,72.9,29.92,NW,315,0.0,1.0,89,0.00,,,0.00,WeatherCatV1.15B25,2013-07-08 11:20:00,
2013-07-08 07:25:00,76.8,73.0,29.92,WNW,285,1.0,2.0,88,0.00,,,0.00,WeatherCatV1.15B25,2013-07-08 11:25:00,
2013-07-08 07:30:00,77.2,73.4,29.92,North,0,0.0,2.0,88,0.00,,,0.00,WeatherCatV1.15B25,2013-07-08 11:30:00,
2013-07-08 07:35:00,77.5,73.7,29.92,WNW,287,0.0,1.0,88,0.00,,,0.00,WeatherCatV1.15B25,2013-07-08 11:35:00,
2013-07-08 07:40:00,77.9,73.7,29.92,NW,315,2.0,2.0,87,0.00,,,0.00,WeatherCatV1.15B25,2013-07-08 11:40:00,
2013-07-08 07:45:00,78.2,73.7,29.93,NNW,342,1.0,1.0,86,0.00,,,0.00,WeatherCatV1.15B25,2013-07-08 11:45:00,
2013-07-08 07:50:00,78.3,73.4,29.93,SSE,155,0.0,2.0,85,0.00,,,0.00,WeatherCatV1.15B25,2013-07-08 11:50:00,
2013-07-08 07:55:00,78.4,73.1,29.93,WNW,285,1.0,3.0,84,0.00,,,0.00,WeatherCatV1.15B25,2013-07-08 11:55:00,
2013-07-08 08:00:00,78.4,73.1,29.93,SSE,147,0.0,1.0,84,0.00,,,0.00,WeatherCatV1.15B25,2013-07-08 12:00:00,
2013-07-08 08:05:00,78.5,72.9,29.93,NW,309,1.0,3.0,83,0.00,,,0.00,WeatherCatV1.15B25,2013-07-08 12:05:00,
2013-07-08 08:10:00,78.6,73.0,29.93,NW,319,0.0,1.0,83,0.00,,,0.00,WeatherCatV1.15B25,2013-07-08 12:10:00,
2013-07-08 08:15:00,78.8,72.8,29.94,WNW,298,0.0,1.0,82,0.00,,,0.00,WeatherCatV1.15B25,2013-07-08 12:15:00,
2013-07-08 08:20:00,78.9,72.9,29.94,WNW,289,3.0,5.0,82,0.00,,,0.00,WeatherCatV1.15B25,2013-07-08 12:20:00,
2013-07-08 08:25:00,79.0,73.4,29.94,NNW,335,0.0,1.0,83,0.00,,,0.00,WeatherCatV1.15B25,2013-07-08 12:25:00,
2013-07-08 08:30:00,79.2,73.2,29.93,WSW,257,0.0,1.0,82,0.00,,,0.00,WeatherCatV1.15B25,2013-07-08 12:30:00,
2013-07-08 08:35:00,79.6,73.2,29.94,West,278,1.0,4.0,81,0.00,,,0.00,WeatherCatV1.15B25,2013-07-08 12:35:00,
2013-07-08 08:40:00,79.7,73.3,29.93,NW,316,0.0,0.0,81,0.00,,,0.00,WeatherCatV1.15B25,2013-07-08 12:40:00,
2013-07-08 08:45:00,79.9,73.5,29.93,West,264,0.0,1.0,81,0.00,,,0.00,WeatherCatV1.15B25,2013-07-08 12:45:00,
2013-07-08 08:50:00,80.1,73.4,29.93,West,270,0.0,1.0,80,0.00,,,0.00,WeatherCatV1.15B25,2013-07-08 12:50:00,
2013-07-08 08:55:00,80.0,73.3,29.93,WNW,286,0.0,1.0,80,0.00,,,0.00,WeatherCatV1.15B25,2013-07-08 12:55:00,
2013-07-08 09:00:00,80.1,73.4,29.93,WNW,287,1.0,1.0,80,0.00,,,0.00,WeatherCatV1.15B25,2013-07-08 13:00:00,
2013-07-08 09:05:00,80.3,73.2,29.93,WNW,293,0.0,1.0,79,0.00,,,0.00,WeatherCatV1.15B25,2013-07-08 13:05:00,
2013-07-08 09:10:00,80.6,73.5,29.93,NW,321,1.0,2.0,79,0.00,,,0.00,WeatherCatV1.15B25,2013-07-08 13:10:00,
2013-07-08 09:15:00,80.9,73.0,29.93,NNW,330,0.0,1.0,77,0.00,,,0.00,WeatherCatV1.15B25,2013-07-08 13:15:00,
2013-07-08 09:20:00,81.3,73.8,29.93,NNW,341,0.0,1.0,78,0.00,,,0.00,WeatherCatV1.15B25,2013-07-08 13:20:00,
2013-07-08 09:25:00,81.5,73.6,29.94,WNW,298,0.0,3.0,77,0.00,,,0.00,WeatherCatV1.15B25,2013-07-08 13:25:00,
2013-07-08 09:30:00,81.7,73.8,29.94,NNE,18,0.0,1.0,77,0.00,,,0.00,WeatherCatV1.15B25,2013-07-08 13:30:00,
2013-07-08 09:35:00,81.7,73.8,29.94,NNW,328,0.0,1.0,77,0.00,,,0.00,WeatherCatV1.15B25,2013-07-08 13:35:00,
2013-07-08 09:40:00,81.7,73.4,29.94,NW,309,0.0,0.0,76,0.00,,,0.00,WeatherCatV1.15B25,2013-07-08 13:40:00,
2013-07-08 09:45:00,81.7,73.4,29.94,NW,319,0.0,0.0,76,0.00,,,0.00,WeatherCatV1.15B25,2013-07-08 13:45:00,
2013-07-08 09:50:00,82.0,73.3,29.94,East,100,0.0,1.0,75,0.00,,,0.00,WeatherCatV1.15B25,2013-07-08 13:50:00,
2013-07-08 09:55:00,82.3,73.6,29.95,ESE,107,1.0,1.0,75,0.00,,,0.00,WeatherCatV1.15B25,2013-07-08 13:55:00,
2013-07-08 10:00:00,82.4,73.7,29.94,SSW,196,1.0,1.0,75,0.00,,,0.00,WeatherCatV1.15B25,2013-07-08 14:00:00,
2013-07-08 10:05:00,82.5,72.9,29.94,NW,309,1.0,3.0,73,0.00,,,0.00,WeatherCatV1.15B25,2013-07-08 14:05:00,
2013-07-08 10:10:00,82.6,73.4,29.95,ENE,63,0.0,1.0,74,0.00,,,0.00,WeatherCatV1.15B25,2013-07-08 14:10:00,
2013-07-08 10:15:00,82.9,74.1,29.95,North,356,1.0,1.0,75,0.00,,,0.00,WeatherCatV1.15B25,2013-07-08 14:15:00,
2013-07-08 10:20:00,82.8,73.2,29.95,East,89,1.0,1.0,73,0.00,,,0.00,WeatherCatV1.15B25,2013-07-08 14:20:00,
2013-07-08 10:25:00,82.5,72.9,29.95,NNW,342,0.0,1.0,73,0.00,,,0.00,WeatherCatV1.15B25,2013-07-08 14:25:00,
2013-07-08 10:30:00,82.6,73.8,29.94,NNW,340,0.0,0.0,75,0.00,,,0.00,WeatherCatV1.15B25,2013-07-08 14:30:00,
2013-07-08 10:35:00,83.1,73.5,29.94,North,11,1.0,1.0,73,0.00,,,0.00,WeatherCatV1.15B25,2013-07-08 14:35:00,
2013-07-08 10:40:00,83.2,73.6,29.94,West,280,0.0,2.0,73,0.00,,,0.00,WeatherCatV1.15B25,2013-07-08 14:40:00,
2013-07-08 10:45:00,83.4,73.4,29.95,North,3,1.0,1.0,72,0.00,,,0.00,WeatherCatV1.15B25,2013-07-08 14:45:00,
2013-07-08 10:50:00,83.6,74.0,29.95,NNW,339,2.0,3.0,73,0.00,,,0.00,WeatherCatV1.15B25,2013-07-08 14:50:00,
2013-07-08 10:55:00,83.7,73.7,29.94,NE,37,1.0,2.0,72,0.00,,,0.00,WeatherCatV1.15B25,2013-07-08 14:55:00,
2013-07-08 11:00:00,83.5,73.9,29.95,NNE,20,0.0,1.0,73,0.00,,,0.00,WeatherCatV1.15B25,2013-07-08 15:00:00,
2013-07-08 11:05:00,83.3,74.5,29.95,NNW,330,1.0,2.0,75,0.00,,,0.00,WeatherCatV1.15B25,2013-07-08 15:05:00,
2013-07-08 11:10:00,82.8,74.4,29.95,WNW,297,0.0,2.0,76,0.00,,,0.00,WeatherCatV1.15B25,2013-07-08 15:10:00,
2013-07-08 11:15:00,82.3,74.3,29.95,NNW,340,2.0,4.0,77,0.00,,,0.00,WeatherCatV1.15B25,2013-07-08 15:15:00,
2013-07-08 11:20:00,82.1,73.8,29.95,ENE,75,2.0,4.0,76,0.00,,,0.00,WeatherCatV1.15B25,2013-07-08 15:20:00,
2013-07-08 11:25:00,82.1,73.8,29.95,SE,137,0.0,2.0,76,0.00,,,0.00,WeatherCatV1.15B25,2013-07-08 15:25:00,
2013-07-08 11:30:00,81.9,73.6,29.95,East,86,1.0,2.0,76,0.00,,,0.00,WeatherCatV1.15B25,2013-07-08 15:30:00,
2013-07-08 11:35:00,81.1,72.8,29.96,ESE,107,0.0,2.0,76,0.00,,,0.00,WeatherCatV1.15B25,2013-07-08 15:35:00,
2013-07-08 11:40:00,80.5,72.6,29.96,ESE,105,1.0,1.0,77,0.00,,,0.00,WeatherCatV1.15B25,2013-07-08 15:40:00,
2013-07-08 11:45:00,80.5,72.6,29.95,SE,135,1.0,5.0,77,0.00,,,0.00,WeatherCatV1.15B25,2013-07-08 15:45:00,
2013-07-08 11:50:00,80.5,72.6,29.96,West,261,0.0,2.0,77,0.00,,,0.00,WeatherCatV1.15B25,2013-07-08 15:50:00,
2013-07-08 11:55:00,80.7,72.8,29.96,East,79,1.0,1.0,77,0.00,,,0.00,WeatherCatV1.15B25,2013-07-08 15:55:00,
2013-07-08 12:00:00,81.1,72.8,29.96,East,86,2.0,5.0,76,0.00,,,0.00,WeatherCatV1.15B25,2013-07-08 16:00:00,
2013-07-08 12:05:00,81.7,73.4,29.96,NNE,17,0.0,1.0,76,0.00,,,0.00,WeatherCatV1.15B25,2013-07-08 16:05:00,
2013-07-08 12:10:00,82.4,73.3,29.96,NE,41,3.0,3.0,74,0.00,,,0.00,WeatherCatV1.15B25,2013-07-08 16:10:00,
2013-07-08 12:15:00,82.7,73.5,29.96,ESE,105,4.0,5.0,74,0.00,,,0.00,WeatherCatV1.15B25,2013-07-08 16:15:00,
2013-07-08 12:20:00,83.1,73.9,29.96,ESE,108,2.0,2.0,74,0.00,,,0.00,WeatherCatV1.15B25,2013-07-08 16:20:00,
2013-07-08 12:25:00,83.2,72.8,29.96,ESE,123,3.0,4.0,71,0.00,,,0.00,WeatherCatV1.15B25,2013-07-08 16:25:00,
2013-07-08 12:30:00,82.8,73.2,29.96,East,89,2.0,5.0,73,0.00,,,0.00,WeatherCatV1.15B25,2013-07-08 16:30:00,
2013-07-08 12:35:00,82.7,72.3,29.96,ENE,77,1.0,3.0,71,0.00,,,0.00,WeatherCatV1.15B25,2013-07-08 16:35:00,
2013-07-08 12:40:00,82.3,72.8,29.96,East,89,1.0,2.0,73,0.00,,,0.00,WeatherCatV1.15B25,2013-07-08 16:40:00,
2013-07-08 12:45:00,82.4,72.4,29.96,East,84,1.0,5.0,72,0.00,,,0.00,WeatherCatV1.15B25,2013-07-08 16:45:00,
2013-07-08 12:50:00,82.4,72.4,29.97,SE,129,4.0,10.0,72,0.00,,,0.00,WeatherCatV1.15B25,2013-07-08 16:50:00,
2013-07-08 12:56:00,81.5,72.4,29.96,ESE,122,5.0,5.0,74,0.00,,,0.00,WeatherCatV1.15B25,2013-07-08 16:56:00,
2013-07-08 13:01:00,81.3,72.2,29.96,East,96,1.0,3.0,74,0.00,,,0.00,WeatherCatV1.15B25,2013-07-08 17:01:00,
2013-07-08 13:06:00,81.0,71.9,29.97,East,82,1.0,7.0,74,0.00,,,0.00,WeatherCatV1.15B25,2013-07-08 17:06:00,
2013-07-08 13:11:00,81.2,71.7,29.97,East,95,2.0,4.0,73,0.00,,,0.00,WeatherCatV1.15B25,2013-07-08 17:11:00,
2013-07-08 13:16:00,81.3,71.8,29.97,ESE,117,4.0,6.0,73,0.00,,,0.00,WeatherCatV1.15B25,2013-07-08 17:16:00,
2013-07-08 13:21:00,81.2,72.1,29.97,ENE,59,0.0,0.0,74,0.00,,,0.00,WeatherCatV1.15B25,2013-07-08 17:21:00,
2013-07-08 13:26:00,81.6,72.5,29.96,ESE,107,1.0,3.0,74,0.00,,,0.00,WeatherCatV1.15B25,2013-07-08 17:26:00,
2013-07-08 13:31:00,81.1,71.6,29.97,ESE,110,2.0,4.0,73,0.00,,,0.00,WeatherCatV1.15B25,2013-07-08 17:31:00,
2013-07-08 13:36:00,80.8,72.1,29.97,ENE,71,0.0,5.0,75,0.00,,,0.00,WeatherCatV1.15B25,2013-07-08 17:36:00,
2013-07-08 13:41:00,81.7,72.6,29.97,ENE,63,1.0,6.0,74,0.00,,,0.00,WeatherCatV1.15B25,2013-07-08 17:41:00,
2013-07-08 13:46:00,81.8,72.3,29.96,ENE,61,0.0,1.0,73,0.00,,,0.00,WeatherCatV1.15B25,2013-07-08 17:46:00,
2013-07-08 13:51:00,82.2,72.7,29.96,ESE,103,3.0,5.0,73,0.00,,,0.00,WeatherCatV1.15B25,2013-07-08 17:51:00,
2013-07-08 13:57:00,82.1,72.2,29.96,ESE,114,3.0,3.0,72,0.00,,,0.00,WeatherCatV1.15B25,2013-07-08 17:57:00,
2013-07-08 14:02:00,82.5,72.9,29.96,ESE,118,0.0,5.0,73,0.00,,,0.00,WeatherCatV1.15B25,2013-07-08 18:02:00,
2013-07-08 14:07:00,82.5,72.9,29.96,ENE,72,0.0,7.0,73,0.00,,,0.00,WeatherCatV1.15B25,2013-07-08 18:07:00,
2013-07-08 14:13:00,82.6,71.8,29.96,NW,316,1.0,8.0,70,0.00,,,0.00,WeatherCatV1.15B25,2013-07-08 18:13:00,
2013-07-08 14:18:00,82.4,72.0,29.96,ENE,59,0.0,3.0,71,0.00,,,0.00,WeatherCatV1.15B25,2013-07-08 18:18:00,
2013-07-08 14:23:00,82.8,72.8,29.96,ENE,78,2.0,2.0,72,0.00,,,0.00,WeatherCatV1.15B25,2013-07-08 18:23:00,
2013-07-08 14:28:00,82.9,72.1,29.96,North,8,1.0,2.0,70,0.00,,,0.00,WeatherCatV1.15B25,2013-07-08 18:28:00,
2013-07-08 14:33:00,82.9,72.5,29.96,East,86,4.0,5.0,71,0.00,,,0.00,WeatherCatV1.15B25,2013-07-08 18:33:00,
2013-07-08 14:38:00,82.5,72.1,29.96,ESE,105,2.0,6.0,71,0.00,,,0.00,WeatherCatV1.15B25,2013-07-08 18:38:00,
2013-07-08 14:43:00,82.4,71.6,29.96,ENE,60,2.0,4.0,70,0.00,,,0.00,WeatherCatV1.15B25,2013-07-08 18:43:00,
2013-07-08 14:48:00,82.4,72.0,29.96,ESE,117,2.0,3.0,71,0.00,,,0.00,WeatherCatV1.15B25,2013-07-08 18:48:00,
2013-07-08 14:53:00,82.7,72.3,29.96,East,96,2.0,4.0,71,0.00,,,0.00,WeatherCatV1.15B25,2013-07-08 18:53:00,
2013-07-08 14:59:00,82.8,72.4,29.96,SE,135,1.0,3.0,71,0.00,,,0.00,WeatherCatV1.15B25,2013-07-08 18:59:00,
2013-07-08 15:04:00,83.2,72.8,29.96,ESE,103,1.0,4.0,71,0.00,,,0.00,WeatherCatV1.15B25,2013-07-08 19:04:00,
2013-07-08 15:09:00,83.1,72.7,29.96,West,276,0.0,1.0,71,0.00,,,0.00,WeatherCatV1.15B25,2013-07-08 19:09:00,
2013-07-08 15:14:00,83.1,71.8,29.96,East,79,0.0,5.0,69,0.00,,,0.00,WeatherCatV1.15B25,2013-07-08 19:14:00,
2013-07-08 15:19:00,83.2,72.8,29.96,WSW,258,1.0,1.0,71,0.00,,,0.00,WeatherCatV1.15B25,2013-07-08 19:19:00,
2013-07-08 15:24:00,82.8,71.6,29.96,NNE,16,1.0,2.0,69,0.00,,,0.00,WeatherCatV1.15B25,2013-07-08 19:24:00,
2013-07-08 15:29:00,82.7,71.5,29.96,NNW,330,0.0,1.0,69,0.00,,,0.00,WeatherCatV1.15B25,2013-07-08 19:29:00,
2013-07-08 15:34:00,82.4,71.6,29.96,ENE,78,0.0,2.0,70,0.00,,,0.00,WeatherCatV1.15B25,2013-07-08 19:34:00,
2013-07-08 15:39:00,82.7,72.3,29.96,East,94,4.0,4.0,71,0.00,,,0.00,WeatherCatV1.15B25,2013-07-08 19:39:00,
2013-07-08 15:44:00,82.3,71.5,29.96,ENE,70,0.0,3.0,70,0.00,,,0.00,WeatherCatV1.15B25,2013-07-08 19:44:00,
2013-07-08 15:50:00,82.3,71.9,29.96,ESE,121,1.0,3.0,71,0.00,,,0.00,WeatherCatV1.15B25,2013-07-08 19:50:00,
2013-07-08 15:55:00,82.4,71.2,29.96,NE,49,2.0,4.0,69,0.00,,,0.00,WeatherCatV1.15B25,2013-07-08 19:55:00,
2013-07-08 16:00:00,82.1,70.5,29.96,ENE,71,2.0,7.0,68,0.00,,,0.00,WeatherCatV1.15B25,2013-07-08 20:00:00,
2013-07-08 16:05:00,81.6,70.4,29.95,South,179,2.0,5.0,69,0.00,,,0.00,WeatherCatV1.15B25,2013-07-08 20:05:00,
2013-07-08 16:10:00,81.5,70.3,29.95,East,99,2.0,6.0,69,0.00,,,0.00,WeatherCatV1.15B25,2013-07-08 20:10:00,
2013-07-08 16:15:00,80.8,70.5,29.95,East,79,1.0,4.0,71,0.00,,,0.00,WeatherCatV1.15B25,2013-07-08 20:15:00,
2013-07-08 16:20:00,80.7,70.4,29.95,East,99,0.0,8.0,71,0.00,,,0.00,WeatherCatV1.15B25,2013-07-08 20:20:00,
2013-07-08 16:25:00,80.7,70.8,29.96,NNE,27,2.0,3.0,72,0.00,,,0.00,WeatherCatV1.15B25,2013-07-08 20:25:00,
2013-07-08 16:30:00,80.6,70.7,29.96,East,86,0.0,6.0,72,0.00,,,0.00,WeatherCatV1.15B25,2013-07-08 20:30:00,
2013-07-08 16:35:00,80.6,70.3,29.96,NE,41,0.0,2.0,71,0.00,,,0.00,WeatherCatV1.15B25,2013-07-08 20:35:00,
2013-07-08 16:40:00,80.7,70.8,29.96,East,90,1.0,2.0,72,0.00,,,0.00,WeatherCatV1.15B25,2013-07-08 20:40:00,
2013-07-08 16:46:00,80.3,69.6,29.96,East,92,3.0,7.0,70,0.00,,,0.00,WeatherCatV1.15B25,2013-07-08 20:46:00,
2013-07-08 16:51:00,80.0,69.7,29.96,North,1,1.0,6.0,71,0.00,,,0.00,WeatherCatV1.15B25,2013-07-08 20:51:00,
2013-07-08 16:56:00,79.8,69.5,29.96,ESE,102,5.0,6.0,71,0.00,,,0.00,WeatherCatV1.15B25,2013-07-08 20:56:00,
2013-07-08 17:02:00,79.6,69.8,29.97,East,98,0.0,5.0,72,0.00,,,0.00,WeatherCatV1.15B25,2013-07-08 21:02:00,
2013-07-08 17:07:00,79.6,69.8,29.96,East,87,0.0,4.0,72,0.00,,,0.00,WeatherCatV1.15B25,2013-07-08 21:07:00,
2013-07-08 17:13:00,79.4,69.6,29.97,East,93,0.0,5.0,72,0.00,,,0.00,WeatherCatV1.15B25,2013-07-08 21:13:00,
2013-07-08 17:19:00,78.9,69.5,29.96,North,11,0.0,3.0,73,0.00,,,0.00,WeatherCatV1.15B25,2013-07-08 21:19:00,
2013-07-08 17:24:00,78.3,69.3,29.96,ENE,62,0.0,3.0,74,0.00,,,0.00,WeatherCatV1.15B25,2013-07-08 21:24:00,
2013-07-08 17:30:00,78.3,69.3,29.97,NE,56,0.0,2.0,74,0.00,,,0.00,WeatherCatV1.15B25,2013-07-08 21:30:00,
2013-07-08 17:35:00,77.8,68.8,29.97,East,94,3.0,4.0,74,0.00,,,0.00,WeatherCatV1.15B25,2013-07-08 21:35:00,
2013-07-08 17:40:00,76.8,68.3,29.98,WNW,300,1.0,3.0,75,0.00,,,0.00,WeatherCatV1.15B25,2013-07-08 21:40:00,
2013-07-08 17:45:00,76.1,67.6,29.99,WNW,301,0.0,3.0,75,0.00,,,0.00,WeatherCatV1.15B25,2013-07-08 21:45:00,
2013-07-08 17:50:00,75.6,67.5,29.99,NNW,330,1.0,3.0,76,0.00,,,0.00,WeatherCatV1.15B25,2013-07-08 21:50:00,
2013-07-08 17:55:00,75.1,67.8,29.99,WNW,288,0.0,5.0,78,0.00,,,0.00,WeatherCatV1.15B25,2013-07-08 21:55:00,
2013-07-08 18:01:00,74.2,68.3,29.99,East,97,0.0,2.0,82,0.00,,,0.00,WeatherCatV1.15B25,2013-07-08 22:01:00,
2013-07-08 18:06:00,73.3,68.2,30.00,ENE,65,1.0,4.0,84,0.00,,,0.00,WeatherCatV1.15B25,2013-07-08 22:06:00,
2013-07-08 18:12:00,72.1,67.7,29.99,ESE,108,0.0,2.0,86,0.00,,,0.00,WeatherCatV1.15B25,2013-07-08 22:12:00,
2013-07-08 18:17:00,71.2,67.5,29.98,East,100,0.0,4.0,88,0.00,,,0.00,WeatherCatV1.15B25,2013-07-08 22:17:00,
2013-07-08 18:22:00,70.8,67.4,29.99,ESE,117,1.0,3.0,89,0.00,,,0.00,WeatherCatV1.15B25,2013-07-08 22:22:00,
2013-07-08 18:27:00,70.7,67.6,30.00,North,352,1.0,1.0,90,0.00,,,0.00,WeatherCatV1.15B25,2013-07-08 22:27:00,
2013-07-08 18:33:00,70.4,67.6,29.99,ESE,110,2.0,2.0,91,0.00,,,0.00,WeatherCatV1.15B25,2013-07-08 22:33:00,
2013-07-08 18:38:00,70.0,67.2,29.99,SE,127,1.0,3.0,91,0.00,,,0.00,WeatherCatV1.15B25,2013-07-08 22:38:00,
2013-07-08 18:44:00,69.7,67.3,29.99,SE,139,0.0,2.0,92,0.00,,,0.00,WeatherCatV1.15B25,2013-07-08 22:44:00,
2013-07-08 18:49:00,69.6,67.2,29.99,SE,133,0.0,1.0,92,0.00,,,0.00,WeatherCatV1.15B25,2013-07-08 22:49:00,
2013-07-08 18:54:00,69.6,67.2,29.99,ENE,68,1.0,4.0,92,0.00,,,0.00,WeatherCatV1.15B25,2013-07-08 22:54:00,
2013-07-08 18:59:00,69.5,67.1,29.99,ESE,117,0.0,1.0,92,0.00,,,0.00,WeatherCatV1.15B25,2013-07-08 22:59:00,
2013-07-08 19:04:00,69.4,67.3,29.99,East,91,1.0,2.0,93,0.00,,,0.00,WeatherCatV1.15B25,2013-07-08 23:04:00,
2013-07-08 19:10:00,69.4,67.3,29.99,East,101,1.0,1.0,93,0.00,,,0.00,WeatherCatV1.15B25,2013-07-08 23:10:00,
2013-07-08 19:15:00,69.2,66.8,29.99,East,91,0.0,1.0,92,0.00,,,0.00,WeatherCatV1.15B25,2013-07-08 23:15:00,
2013-07-08 19:20:00,69.1,67.0,30.00,North,6,0.0,0.0,93,0.00,,,0.00,WeatherCatV1.15B25,2013-07-08 23:20:00,
2013-07-08 19:26:00,69.0,66.9,30.00,North,6,0.0,0.0,93,0.00,,,0.00,WeatherCatV1.15B25,2013-07-08 23:26:00,
2013-07-08 19:31:00,68.9,66.8,30.00,ESE,113,0.0,1.0,93,0.00,,,0.00,WeatherCatV1.15B25,2013-07-08 23:31:00,
2013-07-08 19:37:00,68.9,66.8,30.01,NNE,33,0.0,1.0,93,0.00,,,0.00,WeatherCatV1.15B25,2013-07-08 23:37:00,
2013-07-08 19:42:00,68.9,66.8,30.01,NE,35,0.0,1.0,93,0.00,,,0.00,WeatherCatV1.15B25,2013-07-08 23:42:00,
2013-07-08 19:47:00,68.9,66.8,30.01,ESE,117,0.0,0.0,93,0.00,,,0.00,WeatherCatV1.15B25,2013-07-08 23:47:00,
2013-07-08 19:52:00,68.8,67.0,30.01,WNW,299,0.0,0.0,94,0.00,,,0.00,WeatherCatV1.15B25,2013-07-08 23:52:00,
2013-07-08 19:57:00,68.8,67.0,30.02,SSE,165,0.0,0.0,94,0.00,,,0.00,WeatherCatV1.15B25,2013-07-08 23:57:00,
2013-07-08 20:02:00,68.7,66.6,30.02,ESE,102,0.0,0.0,93,0.00,,,0.00,WeatherCatV1.15B25,2013-07-09 00:02:00,
2013-07-08 20:07:00,68.6,66.5,30.01,East,88,0.0,1.0,93,0.00,,,0.00,WeatherCatV1.15B25,2013-07-09 00:07:00,
2013-07-08 20:12:00,68.6,66.8,30.01,East,89,0.0,1.0,94,0.00,,,0.00,WeatherCatV1.15B25,2013-07-09 00:12:00,
2013-07-08 20:17:00,68.4,66.6,30.01,ESE,115,0.0,3.0,94,0.00,,,0.00,WeatherCatV1.15B25,2013-07-09 00:17:00,
2013-07-08 20:22:00,68.3,66.5,30.02,East,98,0.0,2.0,94,0.00,,,0.00,WeatherCatV1.15B25,2013-07-09 00:22:00,
2013-07-08 20:28:00,68.3,66.5,30.02,WNW,288,1.0,1.0,94,0.00,,,0.00,WeatherCatV1.15B25,2013-07-09 00:28:00,
2013-07-08 20:33:00,68.3,66.5,30.02,SSE,167,0.0,1.0,94,0.00,,,0.00,WeatherCatV1.15B25,2013-07-09 00:33:00,
2013-07-08 20:38:00,68.1,66.0,30.02,ESE,122,0.0,4.0,93,0.00,,,0.00,WeatherCatV1.15B25,2013-07-09 00:38:00,
2013-07-08 20:43:00,67.9,66.1,30.02,SE,131,0.0,1.0,94,0.00,,,0.00,WeatherCatV1.15B25,2013-07-09 00:43:00,
2013-07-08 20:49:00,67.7,65.9,30.04,SE,126,1.0,1.0,94,0.00,,,0.00,WeatherCatV1.15B25,2013-07-09 00:49:00,
2013-07-08 20:54:00,67.6,65.8,30.04,SE,126,0.0,1.0,94,0.00,,,0.00,WeatherCatV1.15B25,2013-07-09 00:54:00,
2013-07-08 20:59:00,67.4,65.3,30.04,ESE,108,0.0,1.0,93,0.00,,,0.00,WeatherCatV1.15B25,2013-07-09 00:59:00,
2013-07-08 21:05:00,67.4,65.6,30.04,WNW,289,0.0,1.0,94,0.00,,,0.00,WeatherCatV1.15B25,2013-07-09 01:05:00,
2013-07-08 21:10:00,67.3,65.5,30.04,West,270,0.0,1.0,94,0.00,,,0.00,WeatherCatV1.15B25,2013-07-09 01:10:00,
2013-07-08 21:15:00,67.1,65.3,30.04,ESE,122,0.0,1.0,94,0.00,,,0.00,WeatherCatV1.15B25,2013-07-09 01:15:00,
2013-07-08 21:20:00,67.0,65.2,30.04,ESE,122,0.0,1.0,94,0.00,,,0.00,WeatherCatV1.15B25,2013-07-09 01:20:00,
2013-07-08 21:26:00,66.9,65.1,30.05,West,275,0.0,1.0,94,0.00,,,0.00,WeatherCatV1.15B25,2013-07-09 01:26:00,
2013-07-08 21:31:00,66.6,64.8,30.05,West,272,0.0,1.0,94,0.00,,,0.00,WeatherCatV1.15B25,2013-07-09 01:31:00,
2013-07-08 21:37:00,66.7,64.9,30.06,West,275,0.0,1.0,94,0.00,,,0.00,WeatherCatV1.15B25,2013-07-09 01:37:00,
2013-07-08 21:43:00,66.7,64.9,30.05,West,276,0.0,0.0,94,0.00,,,0.00,WeatherCatV1.15B25,2013-07-09 01:43:00,
2013-07-08 21:48:00,66.6,64.8,30.06,WSW,250,0.0,1.0,94,0.00,,,0.00,WeatherCatV1.15B25,2013-07-09 01:48:00,
2013-07-08 21:53:00,66.6,64.8,30.05,SE,143,0.0,0.0,94,0.00,,,0.00,WeatherCatV1.15B25,2013-07-09 01:53:00,
2013-07-08 21:58:00,66.6,64.8,30.05,SE,143,0.0,0.0,94,0.00,,,0.00,WeatherCatV1.15B25,2013-07-09 01:58:00,
2013-07-08 22:03:00,66.6,65.1,30.05,SE,143,0.0,0.0,95,0.00,,,0.00,WeatherCatV1.15B25,2013-07-09 02:03:00,
2013-07-08 22:09:00,66.6,64.8,30.05,ESE,110,0.0,1.0,94,0.00,,,0.00,WeatherCatV1.15B25,2013-07-09 02:09:00,
2013-07-08 22:14:00,66.6,65.1,30.05,ESE,110,0.0,1.0,95,0.00,,,0.00,WeatherCatV1.15B25,2013-07-09 02:14:00,
2013-07-08 22:19:00,66.3,64.5,30.05,WNW,283,0.0,0.0,94,0.00,,,0.00,WeatherCatV1.15B25,2013-07-09 02:19:00,
2013-07-08 22:24:00,66.2,64.4,30.06,ESE,111,0.0,1.0,94,0.00,,,0.00,WeatherCatV1.15B25,2013-07-09 02:24:00,
2013-07-08 22:29:00,66.0,64.2,30.06,ESE,123,2.0,3.0,94,0.00,,,0.00,WeatherCatV1.15B25,2013-07-09 02:29:00,
2013-07-08 22:34:00,65.6,63.5,30.06,ESE,116,0.0,2.0,93,0.00,,,0.00,WeatherCatV1.15B25,2013-07-09 02:34:00,
2013-07-08 22:39:00,65.5,63.7,30.06,SE,134,0.0,2.0,94,0.00,,,0.00,WeatherCatV1.15B25,2013-07-09 02:39:00,
2013-07-08 22:44:00,65.4,63.6,30.06,SE,130,0.0,2.0,94,0.00,,,0.00,WeatherCatV1.15B25,2013-07-09 02:44:00,
2013-07-08 22:49:00,65.4,63.6,30.06,SE,130,0.0,0.0,94,0.00,,,0.00,WeatherCatV1.15B25,2013-07-09 02:49:00,
2013-07-08 22:54:00,65.3,63.5,30.06,SE,129,1.0,1.0,94,0.00,,,0.00,WeatherCatV1.15B25,2013-07-09 02:54:00,
2013-07-08 22:59:00,65.3,63.5,30.07,East,101,0.0,0.0,94,0.00,,,0.00,WeatherCatV1.15B25,2013-07-09 02:59:00,
2013-07-08 23:04:00,65.3,63.5,30.06,East,101,0.0,1.0,94,0.00,,,0.00,WeatherCatV1.15B25,2013-07-09 03:04:00,
2013-07-08 23:09:00,65.2,63.4,30.06,SE,124,0.0,0.0,94,0.00,,,0.00,WeatherCatV1.15B25,2013-07-09 03:09:00,
2013-07-08 23:14:00,65.0,63.2,30.06,SE,127,0.0,2.0,94,0.00,,,0.00,WeatherCatV1.15B25,2013-07-09 03:14:00,
2013-07-08 23:20:00,65.1,63.3,30.06,ESE,121,0.0,1.0,94,0.00,,,0.00,WeatherCatV1.15B25,2013-07-09 03:20:00,
2013-07-08 23:25:00,65.1,63.3,30.06,ESE,117,0.0,0.0,94,0.00,,,0.00,WeatherCatV1.15B25,2013-07-09 03:25:00,
2013-07-08 23:30:00,65.0,63.2,30.07,ESE,117,0.0,0.0,94,0.00,,,0.00,WeatherCatV1.15B25,2013-07-09 03:30:00,
2013-07-08 23:35:00,65.0,63.2,30.07,ESE,117,0.0,1.0,94,0.00,,,0.00,WeatherCatV1.15B25,2013-07-09 03:35:00,
2013-07-08 23:40:00,65.0,63.2,30.07,ESE,117,0.0,0.0,94,0.00,,,0.00,WeatherCatV1.15B25,2013-07-09 03:40:00,
2013-07-08 23:45:00,65.0,63.2,30.07,ESE,117,0.0,0.0,94,0.00,,,0.00,WeatherCatV1.15B25,2013-07-09 03:45:00,
2013-07-08 23:51:00,65.0,63.2,30.07,ESE,117,0.0,0.0,94,0.00,,,0.00,WeatherCatV1.15B25,2013-07-09 03:51:00,
2013-07-08 23:56:00,65.0,63.2,30.07,ESE,117,0.0,0.0,94,0.00,,,0.00,WeatherCatV1.15B25,2013-07-09 03:56:00,